1,428,156개(31234/71408페이지)
LECTURE
번호 제목 글쓴이 조회 날짜
803496 Need To Have A Extra Appealing 301 Redir HinrichsenGuy5640 10 2022.02.16 10:21
803495 Uzasadnienie Sądzie O Spłatę Ratalną Zad TempleHamilton9166 6 2022.02.16 10:21
803494 Search Engine Optimisation Agency Banbur 사진 SchultzAcosta1194 3 2022.02.16 10:21
803493 Wig Shop Alterations: 5 Actionable Sugge SvenningsenGallagher8841 5 2022.02.16 10:21
803492 Tips To Buy Audio Card For Gaming AbbottDwyer5554 5 2022.02.16 10:21
803491 Folding Poker Tables produced A Differen LoweDawson3744 6 2022.02.16 10:21
803490 XXX Japan XXXJapan Video MasseyGlud6633 4 2022.02.16 10:21
803489 Redesigning Doesn't Must Be A Chore VangBright8973 4 2022.02.16 10:20
803488 PostGraduate Essay Writing Service DouglasKaufman1775 6 2022.02.16 10:20
803487 Easy steps to Self-Care ShortAgger6556 12 2022.02.16 10:20
803486 Learn How To Play Poker - The Easy Way SalinasWiggins8088 6 2022.02.16 10:20
803485 I Liceum Ogólnokształcące Im. Henryka Si BendtsenKofoed2268 4 2022.02.16 10:20
803484 8 Actionable Recommendations on Mink Las LudvigsenSteffensen8409 7 2022.02.16 10:20
803483 kapan mesti stop dari permainan slots on 사진 BorregaardBowden8946 3 2022.02.16 10:20
803482 What Everyone Should Know About Fun Serv EskesenHermann9714 73 2022.02.16 10:20
803481 베트남 마사지 GunterRoach4717 5 2022.02.16 10:19
803480 Strategy Tips For Online Poker Tournamen WrennLynge8505 7 2022.02.16 10:19
803479 Hey Disgruntled YouTube television Subsc JoynerHarrell3509 2 2022.02.16 10:19
803478 The way to Lose Money With Ice Pack Gel SimpsonLykkegaard3985 3 2022.02.16 10:19
803477 XXX Japan XXXJapan Video MartensenHays3994 2 2022.02.16 10:19